Date,TemperatureHighF,TemperatureAvgF,TemperatureLowF,DewpointHighF,DewpointAvgF,DewpointLowF,HumidityHigh,HumidityAvg,HumidityLow,PressureMaxIn,PressureMinIn,WindSpeedMaxMPH,WindSpeedAvgMPH,GustSpeedMaxMPH,PrecipitationSumIn
2013-2-19,38,34,34,37,22,-100,98,70,60,29.98,29.96,27,-36,0,0.05
2013-2-20,34,27,23,22,14,10,66,57,49,30.13,29.98,25,17,0,0.02
2013-2-21,35,28,23,18,14,11,65,57,47,30.24,30.07,23,13,0,0.00
2013-2-22,34,29,23,30,22,16,88,73,60,30.26,30.05,9,5,0,0.00
2013-2-23,45,38,32,43,37,30,99,98,91,30.06,29.66,6,3,0,0.05
2013-2-24,44,37,29,38,30,20,99,77,55,29.96,29.64,23,9,0,0.01
2013-2-25,47,36,27,29,24,20,77,62,42,30.09,29.95,11,5,0,0.00
2013-2-26,42,36,27,36,31,24,98,81,62,30.09,29.57,25,10,0,0.55
2013-2-27,52,43,37,43,38,33,99,84,64,29.57,29.39,23,10,0,0.20
2013-2-28,47,39,33,36,32,28,94,75,52,29.64,29.51,17,8,0,0.00
2013-3-1,42,39,34,31,29,25,84,69,55,29.83,29.63,16,8,0,0.00
2013-3-2,37,34,31,24,22,21,71,60,52,29.83,29.74,16,9,0,0.00
2013-3-3,33,30,27,24,19,17,73,64,53,29.81,29.79,16,8,0,0.00
2013-3-5,47,37,25,29,25,19,79,63,48,30.05,29.89,12,5,0,0.00
2013-3-6,39,37,34,36,32,27,93,82,65,30.00,29.74,25,12,0,0.30
2013-3-7,48,39,35,28,25,22,70,56,43,30.13,30.00,19,9,0,0.00
2013-3-8,47,38,32,28,23,20,66,55,47,30.27,30.10,21,12,0,0.00
2013-3-9,64,43,29,30,24,20,84,49,20,30.29,30.20,10,5,0,0.00
2013-3-10,59,44,28,33,27,22,92,54,26,30.28,30.17,14,6,0,0.00
2013-3-11,56,47,37,48,42,34,96,82,59,30.21,29.89,16,9,0,0.00
2013-3-12,56,50,41,54,46,30,98,85,65,29.88,29.66,19,12,0,0.99
2013-3-13,47,39,31,35,27,17,87,64,44,29.94,29.80,24,10,0,0.13
2013-3-14,41,34,28,21,17,14,74,50,37,29.98,29.90,32,17,0,0.03
2013-3-15,53,39,24,34,24,13,69,54,39,30.00,29.68,20,9,0,0.01
2013-3-16,44,36,32,33,30,25,98,82,58,29.90,29.68,11,5,0,0.11
2013-3-17,39,34,30,32,26,20,98,75,48,30.23,29.88,10,4,0,0.04
2013-3-18,35,32,29,32,24,16,99,75,54,30.30,29.84,17,7,0,0.09
2013-3-19,53,40,33,38,30,19,99,74,34,29.83,29.63,27,9,0,0.59
2013-3-20,48,38,30,23,20,18,65,49,33,29.88,29.72,26,10,0,0.00
2013-3-21,36,32,26,22,15,9,66,51,35,29.78,29.66,24,10,0,0.00
2013-3-22,40,32,24,27,20,15,83,62,46,29.93,29.76,22,11,0,0.00
2013-3-23,46,36,27,25,22,20,78,56,39,29.94,29.86,21,10,0,0.00
2013-3-24,43,32,24,25,21,19,82,66,42,29.94,29.77,9,4,0,0.00
2013-5-22,76,65,69,67,51,-100,85,73,71,29.88,29.85,12,-73,0,0.00
2013-5-23,77,70,62,70,66,61,99,86,70,29.85,29.71,14,6,0,0.27
2013-5-24,62,55,46,62,48,38,99,81,63,30.06,29.67,22,10,0,0.12
2013-5-25,65,54,44,41,37,34,73,55,35,30.08,29.99,25,12,0,0.01
2013-5-26,71,58,46,42,39,35,71,51,32,30.18,30.06,21,9,0,0.00
2013-5-27,72,59,40,46,42,37,91,57,31,30.23,30.12,11,4,0,0.00
2013-5-28,67,60,54,63,56,46,99,88,70,30.17,30.04,8,3,0,0.31
2013-5-29,89,75,59,71,65,59,99,76,49,30.06,30.00,17,5,0,0.00
2013-5-30,92,78,62,71,67,62,99,71,44,30.13,30.05,11,4,0,0.00
2013-5-31,93,80,64,72,67,60,99,68,36,30.10,29.97,14,4,0,0.00
2013-6-1,92,80,65,73,68,64,95,68,48,29.98,29.85,14,5,0,0.00
2013-6-2,86,78,72,69,67,63,79,68,56,29.86,29.76,19,8,0,0.00
2013-6-3,82,72,64,67,64,55,99,76,55,29.88,29.78,16,6,0,0.45
2013-6-4,77,65,53,55,48,41,76,54,36,30.08,29.89,12,5,0,0.00
2013-6-5,80,68,51,54,49,43,86,54,32,30.15,30.03,9,4,0,0.00
2013-6-6,70,64,60,63,56,50,97,76,57,30.07,29.87,12,6,0,0.47
2013-6-7,66,63,61,66,63,59,99,98,91,29.86,29.58,9,6,0,1.44
2013-6-8,80,68,61,64,61,58,99,81,55,30.07,29.63,12,6,0,0.01
2013-6-9,85,70,56,66,60,55,99,73,49,30.16,30.07,9,3,0,0.00
2013-6-10,78,70,65,74,68,64,99,92,79,30.08,29.74,14,6,0,0.97
2013-6-11,80,73,64,68,65,60,99,78,61,29.79,29.69,22,9,0,0.00
2013-6-12,82,74,61,67,63,59,92,70,54,29.82,29.76,14,5,0,0.00
2013-6-13,84,72,62,69,64,58,98,77,58,29.79,29.38,17,8,0,0.67
2013-6-14,78,66,58,59,55,50,91,71,48,29.92,29.54,14,7,0,0.02
2013-6-15,82,70,56,62,57,50,93,66,42,30.02,29.92,13,6,0,0.00
2013-6-16,83,70,56,67,60,50,89,74,52,29.99,29.81,14,5,0,0.01
2013-6-17,86,73,63,72,66,61,97,81,55,29.91,29.83,39,4,0,0.37
2013-6-18,76,68,64,72,66,62,99,92,76,29.88,29.78,7,2,0,0.31
2013-6-19,86,70,60,65,58,54,99,70,39,30.13,29.86,9,3,0,0.00
2013-6-20,79,69,56,65,60,54,98,76,55,30.24,30.13,10,3,0,0.00
2013-6-21,82,70,56,65,59,54,99,69,50,30.28,30.21,12,4,0,0.00
2013-6-22,86,73,57,71,64,54,92,74,58,30.24,30.08,11,4,0,0.00
2013-6-23,88,77,63,73,69,61,96,77,63,30.17,30.03,8,3,0,0.00
2013-6-24,92,78,67,74,70,65,99,78,52,30.08,29.97,15,4,0,0.00
2013-6-25,94,78,65,77,69,64,98,76,55,30.01,29.83,34,4,0,0.35
2013-6-26,90,74,-26,76,69,-28,99,84,60,29.87,29.75,12,3,0,1.02
2013-6-27,86,74,67,77,71,66,99,90,67,29.80,29.54,14,4,0,0.14
2013-6-28,84,75,69,74,69,67,96,83,67,29.55,29.44,11,5,0,0.00
2013-6-29,89,76,64,70,66,63,98,75,47,29.68,29.45,17,4,0,0.17
2013-6-30,86,76,67,75,71,66,99,86,70,29.84,29.66,10,4,0,0.00
2013-7-1,81,75,69,75,72,68,99,89,78,29.96,29.82,13,5,0,1.25
2013-7-2,84,77,72,76,73,70,97,88,72,30.13,29.97,12,6,0,0.14
2013-7-3,86,76,71,76,72,70,96,88,70,30.21,30.13,10,4,0,0.06
2013-7-4,90,79,70,78,73,70,99,83,62,30.21,30.13,11,4,0,0.00
2013-7-5,92,81,71,76,73,70,97,77,59,30.18,30.08,11,4,0,0.00
2013-7-6,95,81,70,77,73,69,96,77,55,30.13,30.02,8,2,0,0.00
2013-7-7,94,78,68,76,71,67,94,79,55,30.06,29.95,23,4,0,0.09
2013-7-8,89,74,66,71,68,65,97,82,52,30.04,29.98,14,3,0,0.01
2013-7-9,86,76,68,74,70,67,96,83,68,30.06,29.96,13,2,0,0.25
2013-7-10,89,78,69,75,71,68,96,82,60,29.97,29.79,9,3,0,0.06
2013-7-11,85,76,70,71,67,62,90,74,56,29.90,29.79,9,4,0,0.02
2013-7-12,73,70,66,68,64,60,93,82,70,30.01,29.89,10,3,0,0.77
2013-7-13,86,76,68,73,70,67,96,83,65,30.26,30.00,8,3,0,0.24
2013-7-14,96,80,69,77,72,67,94,77,50,30.32,30.25,6,2,0,0.00
2013-7-15,95,81,69,76,72,67,96,76,49,30.26,30.16,11,3,0,0.00
2013-7-16,95,83,73,74,70,67,93,69,45,30.21,30.15,8,3,0,0.00
2013-7-17,103,84,71,76,71,68,93,68,36,30.18,30.07,6,1,0,0.00
2013-7-18,101,84,73,79,73,69,90,72,43,30.07,29.95,7,2,0,0.00
2013-7-19,94,82,73,81,73,67,93,75,52,29.97,29.79,10,2,0,0.08
2013-7-20,89,80,70,75,70,65,91,74,58,29.84,29.74,12,3,0,0.00
2013-7-21,87,78,71,73,69,65,89,73,56,29.91,29.82,5,2,0,0.00
2013-7-22,88,77,69,76,70,67,94,81,63,29.91,29.73,10,2,0,1.20
2013-7-23,86,76,70,72,69,65,95,81,55,29.73,29.58,16,4,0,0.24
2013-7-24,80,73,63,66,62,51,91,70,47,29.93,29.63,14,5,0,0.00
2013-7-25,75,65,51,61,55,49,91,70,61,30.01,29.92,10,4,0,0.00
2013-7-26,92,72,60,65,59,56,90,67,34,30.02,29.99,9,2,0,0.00
2013-7-27,84,75,60,70,66,58,94,76,63,30.02,29.87,11,3,0,0.09
2013-7-28,89,75,68,71,67,64,93,77,49,29.93,29.85,7,2,0,0.03
2013-7-29,83,70,59,68,59,54,92,69,44,30.12,29.93,8,4,0,0.02
2013-7-30,82,66,56,61,56,54,91,74,47,30.16,30.11,9,3,0,0.00
2013-7-31,81,70,58,67,62,56,94,75,58,30.12,29.97,6,2,0,0.00
2013-8-1,82,72,66,70,66,64,93,84,66,29.98,29.75,5,2,0,0.32
2013-8-2,84,73,62,65,62,58,95,70,44,29.91,29.79,9,4,0,0.01
2013-8-3,79,70,62,67,63,59,93,79,64,29.92,29.85,10,3,0,0.01
2013-8-4,78,69,59,62,57,53,94,68,45,29.99,29.86,14,6,0,0.00
2013-8-5,78,66,52,56,53,50,93,66,41,30.05,29.98,7,2,0,0.00
2013-8-6,71,61,57,62,56,53,91,84,65,30.06,30.00,5,1,0,0.00
2013-8-7,72,72,71,69,69,69,93,92,90,30.02,30.00,11,5,0,0.24
2013-8-8,72,72,72,70,70,70,93,93,93,29.95,29.95,1,1,0,0.00
2013-8-9,82,82,81,74,73,73,75,75,74,29.82,29.80,6,5,0,0.21
2013-8-10,81,74,68,68,64,62,89,73,53,30.01,29.91,7,3,0,0.00
2013-8-11,85,79,71,68,65,61,74,61,50,30.07,29.97,6,2,0,0.00
2013-8-12,90,77,69,66,64,62,88,67,45,29.95,29.87,6,2,0,0.00
2013-8-13,79,69,65,70,65,64,94,88,69,29.87,29.69,8,3,0,2.06
2013-8-14,68,62,55,58,53,48,84,73,67,30.02,29.78,7,4,0,0.01
2013-8-22,87,80,69,71,69,66,94,72,56,29.99,29.88,9,4,0,0.06
2013-8-23,63,62,62,59,58,57,89,86,80,30.08,30.06,3,2,0,0.00
2013-8-24,86,69,54,59,55,52,93,64,37,30.30,30.09,8,2,0,0.00
2013-8-25,82,68,56,63,55,50,91,65,50,30.33,30.23,3,2,0,0.00
2013-8-26,86,72,56,67,60,51,91,68,50,30.23,29.92,11,3,0,0.00
2013-8-27,92,77,67,70,66,63,89,71,49,29.92,29.83,8,3,0,0.00
2013-8-28,83,74,68,72,70,66,94,86,66,29.85,29.77,10,2,0,0.34
2013-8-29,81,77,72,67,67,66,80,72,63,29.96,29.96,2,1,0,0.00
2013-8-30,91,79,71,73,70,67,92,74,52,29.99,29.82,7,3,0,0.00
2013-8-31,86,73,68,73,68,66,94,86,67,29.84,29.78,5,1,0,0.00
2013-9-1,89,80,74,74,71,69,86,74,60,29.77,29.73,4,1,0,0.00
2013-9-2,94,77,70,73,69,66,93,79,51,29.74,29.67,9,3,0,0.54
2013-9-3,81,72,62,69,60,53,94,69,47,29.91,29.68,14,6,0,0.00
2013-9-4,84,68,56,60,56,52,89,67,42,30.01,29.91,10,4,0,0.00
2013-9-5,80,66,53,61,54,46,90,66,37,30.13,29.95,14,4,0,0.00
2013-9-6,78,60,47,48,44,39,86,59,29,30.23,30.12,7,2,0,0.00
2013-9-7,81,62,44,59,51,42,94,71,41,30.12,29.89,6,1,0,0.00
2013-9-8,81,69,58,65,58,45,91,69,51,30.06,29.82,12,4,0,0.00
2013-9-9,75,62,44,61,52,42,93,72,57,30.18,30.06,5,2,0,0.00
2013-9-10,93,77,67,73,69,62,92,77,53,30.12,30.02,6,2,0,0.00
2013-9-11,93,79,68,77,71,66,94,77,56,30.10,29.95,6,1,0,0.00
2013-9-12,87,74,67,74,69,64,94,85,66,29.95,29.70,7,2,0,0.36
2013-9-13,74,67,58,66,56,46,94,70,47,29.89,29.64,15,6,0,0.00
2013-9-14,64,55,44,48,45,41,93,71,53,30.13,29.89,10,4,0,0.00
2013-9-15,77,57,39,55,48,37,95,74,46,30.20,30.04,7,2,0,0.00
2013-9-16,71,62,56,58,53,47,92,76,51,30.23,30.00,10,3,0,0.19
2013-9-17,67,53,38,47,41,35,91,65,42,30.39,30.24,11,3,0,0.00
2013-9-18,79,54,38,52,44,37,94,73,39,30.33,30.15,6,1,0,0.00
2013-9-19,83,59,40,58,49,38,95,74,40,30.17,30.02,7,1,0,0.00
2013-9-20,83,64,48,60,55,46,95,75,47,30.06,29.90,7,2,0,0.00
2013-9-21,76,64,54,63,58,52,94,83,59,29.93,29.62,14,4,0,0.92
2013-9-22,69,60,52,60,51,44,95,73,51,29.91,29.66,12,5,0,0.01
2013-9-23,65,55,45,47,43,38,89,64,51,30.05,29.91,10,4,0,0.00
2013-9-24,73,54,38,50,44,36,94,72,41,30.08,29.89,10,3,0,0.00
2013-9-25,78,54,40,50,44,39,94,74,34,29.95,29.83,7,2,0,0.00
2013-9-26,75,59,44,55,50,42,95,73,47,30.03,29.90,7,1,0,0.00
2013-9-27,74,63,50,56,53,47,89,71,48,30.22,30.03,11,3,0,0.00
2013-9-28,76,59,49,54,50,46,94,75,47,30.29,30.18,7,2,0,0.00
2013-9-29,75,57,44,56,49,42,95,77,49,30.20,30.02,6,1,0,0.00
2013-9-30,80,59,46,57,50,44,95,75,39,30.06,29.92,6,1,0,0.00
2013-10-1,81,63,48,61,54,47,95,75,47,30.02,29.90,11,3,0,0.00
2013-10-2,86,67,51,63,57,49,95,73,45,30.00,29.93,14,3,0,0.00
2013-10-3,82,68,54,62,59,52,95,74,49,30.09,29.99,5,1,0,0.00
2013-10-4,88,71,58,67,62,56,95,77,48,30.04,29.96,8,2,0,0.00
2013-10-5,87,72,64,68,65,62,94,78,50,30.03,29.95,14,2,0,0.04
2013-10-6,86,73,65,71,65,63,95,79,57,30.01,29.88,8,3,0,0.00
2013-10-7,73,64,52,68,60,44,93,85,74,29.99,29.69,14,5,0,1.40
2013-10-8,67,54,42,48,45,40,94,72,47,30.27,30.00,10,2,0,0.00
2013-10-9,60,53,44,49,45,41,89,74,62,30.34,30.23,8,3,0,0.00
2013-10-10,57,55,51,55,50,45,95,86,73,30.22,29.98,10,4,0,3.99
2013-10-11,62,58,55,59,56,53,95,93,89,30.02,29.93,14,5,0,4.50
2013-10-12,70,64,60,58,53,44,89,68,45,30.17,29.98,9,5,0,0.00
2013-10-13,70,61,51,54,50,45,82,69,53,30.32,30.16,9,5,0,0.00
2013-10-14,73,57,49,53,49,46,93,76,48,30.33,30.19,6,2,0,0.00
2013-10-15,74,57,44,54,48,43,96,76,43,30.21,30.05,6,1,0,0.00
2013-10-16,70,60,52,58,53,46,92,77,65,30.06,29.86,6,1,0,0.00
2013-10-17,72,65,59,62,60,54,94,85,68,29.86,29.64,18,3,0,0.10
2013-10-18,64,55,41,53,44,39,93,69,47,29.96,29.74,21,6,0,0.00
2013-10-19,63,50,37,52,44,36,95,82,54,29.97,29.71,15,2,0,0.12
2013-10-20,60,47,38,47,39,34,91,74,49,30.04,29.78,14,5,0,0.00
2013-10-21,69,50,34,45,38,32,95,70,37,30.10,29.91,10,2,0,0.00
2013-10-22,61,49,37,50,41,30,95,74,40,29.91,29.75,14,3,0,0.00
2013-10-23,55,43,34,37,34,30,88,71,45,29.79,29.60,14,4,0,0.00
2013-10-24,51,40,33,36,31,26,84,70,48,30.04,29.80,19,7,0,0.00
2013-10-25,53,41,31,38,31,26,86,70,52,30.23,30.04,19,7,0,0.00
2013-10-26,56,44,27,34,30,25,92,60,35,30.22,29.86,17,6,0,0.00
2013-10-27,57,46,33,37,32,28,82,59,42,30.11,29.86,22,6,0,0.00
2013-10-28,61,43,28,39,33,26,94,71,38,30.25,30.11,8,2,0,0.00
2013-10-29,60,46,33,42,37,30,94,72,48,30.35,30.25,8,2,0,0.00
2013-10-30,62,52,42,52,47,38,95,84,70,30.30,30.11,7,3,0,0.00
2013-10-31,65,58,50,59,55,49,96,89,79,30.17,29.70,16,6,0,0.03
2013-11-1,68,60,49,62,53,43,93,80,54,29.69,29.46,25,8,0,0.55
2013-11-2,64,53,45,50,44,38,93,72,53,29.79,29.59,16,5,0,0.00
2013-11-3,52,45,30,41,31,21,78,60,35,30.44,29.80,14,7,0,0.00
2013-11-4,45,35,24,26,22,18,78,59,37,30.61,30.44,10,3,0,0.00
2013-11-5,58,46,33,43,36,24,79,69,56,30.57,30.43,8,3,0,0.01
2013-11-6,66,56,49,51,47,43,81,72,58,30.43,30.00,13,7,0,0.00
2013-11-7,58,52,41,54,44,28,91,75,58,29.99,29.81,24,9,0,0.13
2013-11-8,49,41,34,32,28,26,71,60,49,30.25,29.99,25,10,0,0.00
2013-11-9,54,39,27,32,28,22,83,66,42,30.30,29.93,14,4,0,0.00
2013-11-10,57,44,30,40,32,28,95,67,48,30.12,29.86,25,10,0,0.02
2013-11-11,53,46,35,35,31,26,70,56,45,30.21,29.93,19,7,0,0.00
2013-11-12,50,36,26,37,22,14,73,55,39,30.32,29.92,17,8,0,0.00
2013-11-13,41,32,24,23,18,15,71,58,44,30.39,30.30,18,6,0,0.00
2013-11-14,56,39,23,24,18,14,75,47,20,30.30,30.15,14,4,0,0.00
2013-11-15,58,40,26,32,26,19,81,60,32,30.23,30.13,4,1,0,0.00
2013-11-16,59,48,39,47,42,31,94,79,61,30.27,30.19,8,4,0,0.04
2013-11-17,60,55,49,57,52,47,96,89,82,30.20,29.66,15,7,0,0.00
2013-11-18,65,57,46,58,39,26,91,54,30,29.85,29.59,22,13,0,0.28
2013-11-19,48,41,32,29,26,21,65,54,47,30.33,29.86,22,10,0,0.01
2013-11-20,46,35,23,24,19,15,78,54,30,30.53,30.32,9,3,0,0.00
2013-11-21,50,38,23,37,28,15,78,66,57,30.55,30.34,5,2,0,0.00
2013-11-22,52,48,44,47,43,36,94,83,73,30.33,29.94,14,2,0,0.06
2013-11-23,51,39,27,45,26,9,79,61,45,30.10,29.94,26,13,0,0.02
2013-11-24,30,25,20,12,5,0,65,44,27,30.42,30.10,28,14,0,0.02
2013-11-25,34,26,17,17,12,10,72,57,38,30.48,30.28,11,6,0,0.00
2013-11-26,42,39,36,41,38,35,96,95,94,29.74,29.53,14,12,0,0.62
2013-11-27,46,36,29,44,32,19,96,83,64,29.87,29.42,29,14,0,0.71
2013-11-28,36,30,27,21,19,18,76,64,51,30.43,29.88,21,10,0,0.01
2013-11-29,40,29,22,24,19,15,84,68,48,30.70,30.42,14,3,0,0.00
2013-11-30,36,27,14,25,20,10,90,73,61,30.70,30.34,9,3,0,0.00
2013-12-1,40,33,22,30,26,20,93,76,64,30.32,29.97,7,2,0,0.00
2013-12-2,47,38,34,36,31,28,87,76,64,29.98,29.82,5,2,0,0.00
2013-12-3,52,40,32,40,34,30,94,80,61,29.96,29.83,8,2,0,0.00
2013-12-4,55,44,33,46,39,31,94,81,65,30.05,29.93,7,3,0,0.00
2013-12-5,54,52,48,54,51,46,97,96,93,30.03,29.87,9,3,0,0.00
2013-12-6,57,45,35,57,43,34,97,92,85,30.15,29.82,11,5,0,1.60
2013-12-7,39,34,27,34,28,21,93,80,70,30.51,30.09,12,7,0,0.02
2013-12-8,28,26,24,26,21,17,94,82,67,30.55,30.28,9,4,0,0.00
2013-12-9,37,32,28,33,30,26,97,94,87,30.28,29.97,8,4,0,0.13
2013-12-10,33,28,16,31,26,14,97,92,83,30.15,29.91,14,4,0,0.01
2013-12-11,34,22,10,22,15,8,92,78,53,30.32,30.14,14,3,0,0.01
2013-12-12,28,21,13,18,10,3,85,64,42,30.35,30.14,14,6,0,0.00
2013-12-13,37,26,12,21,14,6,76,62,48,30.27,30.12,18,5,0,0.00
2013-12-14,31,28,25,28,23,19,95,81,67,30.34,29.69,17,7,0,0.00
2013-12-15,38,31,26,33,27,19,96,85,68,29.84,29.55,22,6,0,0.53
2013-12-16,31,25,18,23,14,9,76,62,49,30.16,29.84,21,8,0,0.00
2013-12-17,32,23,17,25,19,14,93,83,70,30.14,29.90,9,3,0,0.00
2013-12-18,38,26,18,25,20,16,92,77,51,30.15,29.92,17,6,0,0.00
2013-12-19,43,29,16,28,22,14,93,77,53,30.15,30.00,4,1,0,0.03
2013-12-20,51,38,28,34,30,24,87,72,49,30.04,29.91,4,1,0,0.00
2013-12-21,57,46,36,53,40,31,95,80,64,29.95,29.82,6,2,0,0.00
2013-12-22,64,60,55,60,57,53,95,88,81,29.91,29.72,17,7,0,0.21
2013-12-23,56,49,34,55,45,27,97,86,70,30.17,29.87,18,6,0,0.81
2013-12-24,39,30,21,28,22,13,92,72,61,30.39,30.12,21,10,0,0.00
2013-12-25,28,23,16,17,13,10,76,66,52,30.50,30.34,14,5,0,0.00
2013-12-26,39,28,22,29,21,16,89,76,64,30.33,30.16,8,3,0,0.05
2013-12-27,46,30,16,28,21,13,92,73,43,30.34,30.24,13,3,0,0.00
2013-12-28,56,39,22,34,27,20,94,65,38,30.25,30.05,12,3,0,0.00
2013-12-29,41,38,35,40,34,27,95,86,66,30.05,29.47,16,5,0,0.93
2013-12-30,42,34,22,38,27,15,94,75,63,30.14,29.71,17,7,0,0.00
2013-12-31,36,27,19,26,18,12,82,69,52,30.27,30.01,29,8,0,0.08
2014-1-1,35,28,17,25,20,12,84,74,65,30.35,30.11,8,4,0,0.00
2014-1-2,32,27,19,25,22,17,92,82,73,30.10,29.63,11,6,0,0.00